Showing default

SHIYAN 27C, 63601

Orbit data source: Space-Track

SHIYAN 27C, 63601 is a payload satellite owned by CAST (CN) in SSO that was launched on Fri, 18 Apr 2025 UTC via a CHANG ZHENG 6A launch vehicle from the Taiyaun Space Center, China (TSC). Payload-class satellites include a variety of spacecraft equipped with specific instruments for various scientific and technological missions. These include communications satellites like Starlink; space stations such as the ISS; scientific satellites like the Hubble; Earth observation satellites from companies like Planet Labs, Umbra, and HawkEye 360; GPS; miniature CubeSats for education and research; and military/defense satellites.

Loading next visibility...
Identifier
63601, 2025-078C
Orbit
SSO
Country
Flag of CNCN / PRC
Related business
Manufacturer
CAST
Mission
Operational Defense Radar Imaging
Bus & Motor
SW27, Unknown motor
Mass
300 kg wet, ~300 kg dry
Launch date (UTC)
2025-04-18 (6 months ago)
Launch vehicle
CHANG ZHENG 6A
Launch site
Taiyaun Space Center, China (TSC)
Object type
Payload
Rocket body
Debris
Shape & HBR
Box + 1 Pan, 1.9 m
Radar Cross Section
13.200 m², Large (>1 m²)

Expand to show TLE details & history
Last TLE update: 17 hours ago

TLE from 17 hours ago
0 SHIYAN 27C
1 63601U 25078C   25291.29408764  .00000054  00000-0  13820-3 0  9993
2 63601  99.6948 297.2085 0000682  87.9065 272.2152 13.57220064 24723
Epoch: 2025-10-18T07:03Z
TLE epoch observation values (Epoch: 2025-10-18T07:03:29.172Z)
Latitude
0.00006°
Longitude
164.30977°
Altitude
1,048.588 km
Speed
7.328 km/s
True Right ascension
19h 48m 50s
True Declination
0° 00' 00"
Sunlit
Object was in daylight at epoch
Visualization orbit readout
Latitude
Unknown
Longitude
Unknown
Altitude
Unknown
Speed
Unknown
Apparent Right ascension
Unknown
Apparent Declination
Unknown
Sunlit
N/A
Visualization observer readout
Local Sidereal Time
19:22:23
Azimuth
Unknown
Elevation
Unknown
Doppler factor
Unknown
Orbital elements
Apogee altitude
1,043.61 km
Perigee altitude
1,042.598 km
Semi-major axis
7,421.241 km
Eccentricity
0.00007
Inclination
99.6948°
RAAN
297.2085°
Arg. of periapsis
87.9065°
True anomaly
272.20739°
Mean anomaly
272.2152°
Eccentric anomaly
272.2113°
Mean motion
3.39491 °/min
Orbital period
106.04 mins
BSTAR
0.0001382
Loading maneuver chart data...
Computing Atmospheric mass density...
Loading historical data...
Loading historical data...
Loading historical data...
Loading historical data...
Loading historical data...
Loading historical data...
Loading historical data...

Documentation

Showing up to 5 results
|